Location: Churchill Northern Studies Centre
(58.7378°N, 93.8201°W)
Time: 15:10:31
(UTC-05:00)

Vanguard 2 Rocket - All Passes

Search period start: 19 October 2017 00:00
Search period end: 29 October 2017 00:00
Orbit: 555 x 3327 km, 32.9° (Epoch: 18 October)

Date Brightness Start Highest point End Pass type
(mag) Time Alt. Az. Time Alt. Az. Time Alt. Az.
19 Oct - 15:59:48 10° SSW 16:04:20 14° S 16:09:58 10° SSE daylight
19 Oct - 18:12:34 10° SW 18:16:46 12° SSW 18:21:38 10° S daylight
20 Oct - 15:02:33 10° S 15:05:16 12° SSE 15:08:22 10° SSE daylight
20 Oct - 17:13:22 10° SSW 17:17:19 13° S 17:21:58 10° SSE daylight
21 Oct - 16:15:00 10° SSW 16:18:02 12° S 16:21:33 10° SSE daylight
22 Oct - 15:18:18 10° S 15:18:57 10° S 15:19:38 10° S daylight
